Tracking 28520 objects as of 29-Feb-2024
HD Live streaming from Space Station
objects crossing your sky now

SCOUT X-4 R/B

Track SCOUT X-4 R/B now!
10-day predictions


NORAD ID: 1739
Int'l Code: 1965-093B
Perigee: 666.4 km
Apogee: 780.1 km
Inclination: 59.7 °
Period: 99.1 minutes
Semi major axis: 7094 km
RCS: 0.5409 m2 (medium)
Launch date: November 19, 1965
Source: United States (US)
Launch site: WALLOPS ISLAND (WLPIS)

Note: This is a ROCKET BODY
Your satellite tracking list
Your tracking list is empty




NASA's NSSDC Master Catalog

Two Line Element Set (TLE):
1  1739U 65093B   24059.86995431  .00000968  00000-0  26207-3 0  9991
2  1739  59.7030 248.4247 0080086 189.7431 170.2063 14.52924740 69026
Source of the keplerian elements: AFSPC